Johnstown, PA

1:47 PM EDT on April 26, 2017 (GMT -0400)
Johnstown-Cambria County

Weather History for KJST - February, 2015

Change the Weather History Date:

Thursday, February 19, 2015

  Actual Average Record
Temperature  
Mean Temperature -2 °F 28 °F  
Max Temperature 3 °F 35 °F 69 °F (1939)
Min Temperature -8 °F 21 °F -8 °F (2015)
Degree Days  
Heating Degree Days 67 37  
Month to date heating degree days 901 737  
Since 1 July heating degree days 4731 4554  
Cooling Degree Days 0 0  
Month to date cooling degree days 0 0  
Year to date cooling degree days 0 0  
Moisture  
Dew Point -8 °F    
Average Humidity 73    
Maximum Humidity 87    
Minimum Humidity 59    
Precipitation  
Precipitation 0.04 in 0.09 in 2.09 in (1986)
Month to date precipitation 1.34 1.58  
Year to date precipitation 3.26 4.46  
Sea Level Pressure  
Sea Level Pressure 29.92 in    
Wind  
Wind Speed 17 mph (WNW)    
Max Wind Speed 31 mph    
Max Gust Speed 39 mph    
Visibility 2 miles    
Events Snow    
T = Trace of Precipitation, MM = Missing Value Source: NWS Daily Summary

Daily Weather History Graph

Daily Weather History Graph

Search for Another Location

Airport or City:

Trip Planner

Search our weather history database for the weather conditions in past years. The results will help you decide how hot, cold, wet, or windy it might be!

Date:

Astronomy

Feb. 19, 2015 Rise Set
Actual Time 7:03 AM EST 5:55 PM EST
Civil Twilight 6:35 AM EST 6:22 PM EST
Nautical Twilight 6:04 AM EST 6:54 PM EST
Astronomical Twilight 5:32 AM EST 7:26 PM EST
Moon 7:14 AM EST (2/19) 7:06 PM EST (2/19)
Length of Visible Light 11h 46m
Length of Day
10h 51m
New Moon, 1% of the Moon is Illuminated
Feb 19
New Moon
Feb 25
First Quarter
Mar 5
Full
Mar 13
Last Quarter
Mar 20
New

Hourly Weather History & Observations

Time (EST) Temp. Windchill Dew Point Humidity Pressure Visibility Wind Dir Wind Speed Gust Speed Precip Events Conditions
12:10 AM 3.0 °F -15.5 °F -2.0 °F 80% 29.75 in 1.2 mi West 15.0 mph 24.2 mph 0.00 in Snow Light Snow
12:27 AM 3.0 °F -14.1 °F -2.0 °F 80% 29.74 in 1.8 mi West 12.7 mph 21.9 mph 0.00 in Snow Light Snow
12:54 AM 3.0 °F -14.1 °F -2.0 °F 80% 29.88 in 1.5 mi West 12.7 mph 21.9 mph 0.00 in Snow Light Snow
1:23 AM 1.9 °F -15.5 °F -2.0 °F 83% 29.75 in 1.0 mi West 12.7 mph 21.9 mph 0.00 in Snow Light Snow
1:43 AM 1.9 °F -14.7 °F -2.0 °F 83% 29.75 in 0.8 mi West 11.5 mph 21.9 mph 0.00 in Snow Light Snow
1:54 AM 1.9 °F -15.5 °F -2.0 °F 83% 29.88 in 0.8 mi West 12.7 mph - 0.00 in Snow Light Snow
2:02 AM 1.9 °F -16.2 °F -2.0 °F 83% 29.75 in 0.8 mi West 13.8 mph 23.0 mph 0.00 in Snow Light Snow
2:54 AM 1.9 °F -17.5 °F -2.9 °F 80% 29.88 in 0.8 mi West 16.1 mph 21.9 mph 0.00 in Snow Light Snow
3:54 AM 1.9 °F -16.2 °F -2.9 °F 80% 29.89 in 0.5 mi West 13.8 mph 24.2 mph 0.00 in Snow Snow
4:09 AM 1.9 °F -16.9 °F -2.9 °F 80% 29.76 in 1.0 mi West 15.0 mph - 0.00 in Snow Light Snow
4:22 AM 1.0 °F -17.3 °F -2.9 °F 83% 29.77 in 0.8 mi West 13.8 mph - 0.00 in Snow Light Snow
4:54 AM 1.0 °F -17.3 °F -4.0 °F 79% 29.92 in 0.8 mi West 13.8 mph 21.9 mph 0.00 in Snow Light Snow
5:54 AM 1.0 °F -18.0 °F -4.0 °F 79% 29.93 in 0.8 mi West 15.0 mph 21.9 mph 0.00 in Snow Light Snow
6:54 AM -0.0 °F -18.7 °F -5.1 °F 79% 29.95 in 0.8 mi West 13.8 mph 23.0 mph 0.00 in Snow Light Snow
7:22 AM -0.9 °F -19.1 °F -5.1 °F 83% 29.81 in 0.8 mi West 12.7 mph - 0.00 in Snow Light Snow
7:54 AM -0.9 °F -21.9 °F -6.0 °F 79% 29.99 in 0.5 mi West 17.3 mph 25.3 mph 0.00 in Snow Snow
8:29 AM -0.9 °F -21.2 °F -7.1 °F 75% 29.84 in 0.5 mi West 16.1 mph 25.3 mph 0.00 in Snow Snow
8:38 AM -0.9 °F -19.1 °F -6.0 °F 79% 29.84 in 0.5 mi West 12.7 mph 21.9 mph 0.00 in Snow Snow
8:54 AM -0.9 °F -22.4 °F -7.1 °F 75% 30.01 in 0.5 mi West 18.4 mph 24.2 mph 0.00 in Snow Snow
9:54 AM -0.9 °F -18.3 °F -7.1 °F 75% 30.02 in 0.5 mi West 11.5 mph 21.9 mph 0.00 in Snow Snow
10:54 AM -0.0 °F -18.0 °F -6.0 °F 76% 30.03 in 0.5 mi WNW 12.7 mph - 0.00 in Snow Snow
11:46 AM 1.0 °F -19.3 °F -5.1 °F 75% 29.87 in 0.2 mi WNW 17.3 mph 24.2 mph 0.03 in Snow Heavy Snow
11:54 AM -0.0 °F -20.7 °F -5.1 °F 79% 30.04 in 0.2 mi West 17.3 mph 24.2 mph 0.03 in Snow Heavy Snow
12:07 PM -0.0 °F -20.7 °F -7.1 °F 72% 29.87 in 0.5 mi West 17.3 mph - 0.00 in Snow Snow
12:40 PM 1.0 °F -20.4 °F -8.0 °F 66% 29.86 in 0.8 mi West 19.6 mph 28.8 mph 0.00 in Snow Light Snow
12:54 PM 1.0 °F -19.9 °F -8.0 °F 66% 30.03 in 0.8 mi West 18.4 mph 27.6 mph 0.00 in Snow Light Snow
1:02 PM 1.0 °F -19.3 °F -8.0 °F 66% 29.85 in 1.2 mi WNW 17.3 mph 27.6 mph 0.00 in Snow Light Snow
1:14 PM 1.0 °F -19.9 °F -8.0 °F 66% 29.85 in 0.5 mi WNW 18.4 mph 35.7 mph 0.00 in Snow Snow
1:26 PM 1.0 °F -19.3 °F -8.0 °F 66% 29.85 in 1.0 mi West 17.3 mph 26.5 mph 0.01 in Snow Light Snow
1:33 PM 1.0 °F -21.9 °F -7.1 °F 69% 29.85 in 0.5 mi WNW 23.0 mph 28.8 mph 0.01 in Snow Snow
1:49 PM 1.4 °F -18.2 °F -9.4 °F 61% 29.85 in 2.0 mi WNW 16.1 mph 27.6 mph 0.01 in Snow Light Snow
1:54 PM 1.0 °F -19.9 °F -8.0 °F 66% 30.01 in 1.5 mi West 18.4 mph 27.6 mph 0.01 in Snow Light Snow
2:27 PM 1.0 °F -21.4 °F -9.0 °F 63% 29.84 in 0.8 mi West 21.9 mph 35.7 mph 0.00 in Snow Light Snow
2:36 PM 1.0 °F -20.4 °F -9.9 °F 60% 29.84 in 2.0 mi West 19.6 mph 31.1 mph 0.00 in Snow Light Snow
2:50 PM 1.4 °F -19.4 °F -9.4 °F 61% 29.84 in 1.8 mi West 18.4 mph 31.1 mph 0.00 in   Overcast
2:54 PM 1.9 °F -18.1 °F -9.0 °F 60% 30.01 in 1.8 mi West 17.3 mph 27.6 mph 0.00 in Snow Light Snow
3:17 PM 1.9 °F -18.7 °F -9.0 °F 60% 29.85 in 2.0 mi West 18.4 mph 32.2 mph 0.00 in Snow Light Snow
3:28 PM 1.0 °F -19.9 °F -8.0 °F 66% 29.85 in 2.5 mi West 18.4 mph 31.1 mph 0.00 in   Overcast
3:33 PM 1.0 °F -20.4 °F -8.0 °F 66% 29.85 in 1.8 mi West 19.6 mph 31.1 mph 0.00 in Snow Light Snow
3:38 PM 1.0 °F -17.3 °F -7.1 °F 69% 29.85 in 0.8 mi WNW 13.8 mph 24.2 mph 0.00 in Snow Light Snow
3:54 PM 1.0 °F -18.7 °F -5.1 °F 75% 30.02 in 0.2 mi WNW 16.1 mph - 0.00 in Snow Heavy Snow
4:06 PM 1.0 °F -18.7 °F -4.0 °F 79% 29.86 in 0.2 mi WNW 16.1 mph 21.9 mph 0.00 in Snow Heavy Snow
4:14 PM 1.0 °F -21.9 °F -6.0 °F 72% 29.86 in 0.2 mi West 23.0 mph 36.8 mph 0.00 in Snow Heavy Snow
4:21 PM -0.0 °F -20.7 °F -8.0 °F 69% 29.86 in 0.8 mi West 17.3 mph 33.4 mph 0.00 in   Overcast
4:34 PM -0.0 °F -22.9 °F -9.0 °F 66% 29.87 in 0.8 mi West 21.9 mph 32.2 mph 0.00 in Snow Light Snow
4:54 PM -0.0 °F -23.3 °F -9.9 °F 63% 30.04 in 0.5 mi West 23.0 mph 33.4 mph 0.00 in Snow Snow
5:15 PM -0.0 °F -22.4 °F -11.0 °F 60% 29.88 in 1.2 mi West 20.7 mph 29.9 mph 0.00 in Snow Blowing Snow
5:35 PM -0.9 °F -24.1 °F -9.0 °F 69% 29.89 in 0.8 mi WNW 21.9 mph 34.5 mph 0.00 in Snow Light Snow
5:45 PM -0.9 °F -23.0 °F -9.0 °F 69% 29.89 in 1.0 mi WNW 19.6 mph 34.5 mph 0.00 in Snow Light Snow
5:54 PM -0.9 °F -22.4 °F -8.0 °F 72% 30.08 in 0.2 mi West 18.4 mph 29.9 mph 0.00 in Snow Heavy Snow
6:01 PM -0.9 °F -21.2 °F -6.0 °F 79% 29.90 in 0.2 mi WNW 16.1 mph 27.6 mph 0.00 in Snow Heavy Snow
6:10 PM -2.0 °F -26.4 °F -7.1 °F 79% 29.91 in 0.5 mi NW 24.2 mph 32.2 mph 0.00 in Snow Snow
6:15 PM -2.0 °F -26.0 °F -7.1 °F 79% 29.91 in 0.2 mi WNW 23.0 mph 32.2 mph 0.00 in Snow Heavy Snow
6:28 PM -2.0 °F -26.0 °F -8.0 °F 76% 29.92 in 0.5 mi WNW 23.0 mph 33.4 mph 0.00 in Snow Snow
6:40 PM -2.0 °F -27.3 °F -9.0 °F 72% 29.93 in 0.5 mi WNW 26.5 mph 38.0 mph 0.00 in Snow Snow
6:54 PM -2.0 °F -26.9 °F -9.9 °F 69% 30.12 in 1.0 mi WNW 25.3 mph 34.5 mph 0.00 in Snow Light Snow
7:11 PM -2.9 °F -30.2 °F -9.9 °F 72% 29.94 in 0.8 mi WNW 31.1 mph 39.1 mph 0.00 in Snow Light Snow
7:35 PM -2.9 °F -26.7 °F -11.0 °F 68% 29.95 in 1.5 mi WNW 21.9 mph 31.1 mph 0.00 in   Overcast
7:47 PM -2.9 °F -27.2 °F -11.0 °F 68% 29.95 in 1.0 mi NW 23.0 mph 31.1 mph 0.00 in Snow Light Snow
7:54 PM -4.0 °F -28.1 °F -11.0 °F 72% 30.14 in 0.8 mi WNW 21.9 mph 31.1 mph 0.00 in Snow Light Snow
8:01 PM -4.0 °F -29.6 °F -11.9 °F 69% 29.96 in 1.2 mi WNW 25.3 mph 34.5 mph 0.00 in   Overcast
8:37 PM -5.1 °F -29.5 °F -13.0 °F 69% 29.97 in 2.5 mi WNW 21.9 mph 28.8 mph 0.00 in   Overcast
8:44 PM -5.1 °F -29.0 °F -13.0 °F 69% 29.97 in 2.0 mi WNW 20.7 mph 29.9 mph 0.00 in   Haze
8:54 PM -5.1 °F -29.0 °F -14.1 °F 65% 30.16 in 2.0 mi WNW 20.7 mph 33.4 mph 0.00 in   Haze
9:03 PM -6.0 °F -30.2 °F -16.1 °F 62% 29.97 in 3.0 mi WNW 20.7 mph 28.8 mph N/A   Haze
9:13 PM -6.0 °F -31.2 °F -16.1 °F 62% 29.97 in 2.5 mi WNW 23.0 mph 31.1 mph 0.00 in   Haze
9:30 PM -6.0 °F -28.4 °F -16.1 °F 62% 29.98 in 5.0 mi WNW 17.3 mph 25.3 mph 0.00 in   Haze
9:54 PM -6.0 °F -27.0 °F -17.0 °F 59% 30.18 in 9.0 mi WNW 15.0 mph - 0.00 in   Mostly Cloudy
10:41 PM -7.1 °F -26.8 °F -15.0 °F 68% 29.99 in 6.0 mi WNW 12.7 mph 21.9 mph N/A   Haze
10:54 PM -7.1 °F -27.6 °F -15.0 °F 68% 30.18 in 5.0 mi WNW 13.8 mph - N/A   Haze
11:50 PM -7.6 °F -29.8 °F -14.8 °F 71% 30.00 in 9.0 mi WNW 16.1 mph - N/A   Overcast
11:54 PM -8.0 °F -29.6 °F -15.0 °F 71% 30.19 in 8.0 mi WNW 15.0 mph - N/A   Overcast